Weather observations for the past three days for
Kosrae Island - Kosrae Airport
| Date | Time (+11) | Wind (mph) | Vis. (mi.) | Weather | Sky Cond. | Temperature (ºF) | Relative Humidity | Wind Chill (°F) | Heat Index (°F) | Pressure | Precipitation (in) | ||||||
|---|---|---|---|---|---|---|---|---|---|---|---|---|---|---|---|---|---|
| Air | Dwpt | 6 hour | altimeter (in) | sea level (mb) | 1 hr | 3 hr | 6 hr | ||||||||||
| Max. | Min. | ||||||||||||||||
| 01 | 13:50 | W 8 | 10.00 | Overcast | BKN018TCU BKN130 OVC300 | 87.8 | 77 | 70% | 100 | 29.85 | 0.0 | ||||||
| 01 | 12:51 | W 7 | 10.00 | Overcast | BKN015TCU BKN130 OVC300 | 87.8 | 77 | 70% | 100 | 29.87 | 0.0 | ||||||
| 01 | 11:50 | W 9 | 10.00 | Mostly Cloudy | BKN017 BKN130 BKN300 | 87.8 | 77 | 70% | 100 | 29.9 | 0.0 | ||||||
| 01 | 09:50 | W 8 | 10.00 | Overcast | BKN015TCU BKN130 OVC300 | 87.8 | 78.8 | 75% | 102 | 29.91 | 0.0 | ||||||
| 01 | 08:58 | W 7 | 10.00 | Overcast | BKN014TCU BKN130 OVC300 | 84.2 | 78.8 | 84% | 96 | 29.92 | 0.0 | ||||||
| 31 | 17:50 | SW 9 | 10.00 | Light Showers Rain | SCT016 BKN130 OVC300 | 82.4 | 77 | 84% | 91 | 29.84 | 0.0 | ||||||
| 31 | 16:50 | SW 9 | 10.00 | Mostly Cloudy | FEW018 BKN130 BKN300 | 86 | 77 | 75% | 97 | 29.82 | 0.0 | ||||||
| 31 | 15:50 | W 12 | 10.00 | Mostly Cloudy | BKN018 BKN130 BKN300 | 86 | 77 | 75% | 97 | 29.83 | 0.0 | ||||||
| 31 | 14:50 | SW 10 | 10.00 | Showers in Vicinity | BKN016TCU BKN130 BKN300 | 87.8 | 78.8 | 75% | 102 | 29.83 | 0.0 | ||||||
| 31 | 13:55 | SW 9 | 10.00 | Mostly Cloudy | BKN017TCU BKN130 BKN300 | 87.8 | 78.8 | 75% | 102 | 29.84 | 0.0 | ||||||
| 31 | 12:50 | SW 10 | 10.00 | Mostly Cloudy | BKN017TCU BKN130 BKN300 | 87.8 | 78.8 | 75% | 102 | 29.85 | 0.0 | ||||||
| 31 | 11:55 | SW 9 | 10.00 | Mostly Cloudy | BKN016TCU BKN130 BKN300 | 87.8 | 77 | 70% | 100 | 29.87 | 0.0 | ||||||
| 31 | 10:57 | SW 9 | 10.00 | Mostly Cloudy | SCT017 BKN130 BKN300 | 86 | 77 | 75% | 97 | 29.88 | 0.0 | ||||||
| 31 | 09:55 | S 12 | 10.00 | Overcast | SCT017TCU BKN130 OVC300 | 84.2 | 78.8 | 84% | 96 | 29.88 | 0.0 | ||||||
| 31 | 08:58 | S 10 | 10.00 | Overcast | SCT016TCU BKN130 OVC300 | 84.2 | 77 | 79% | 94 | 29.89 | 0.0 | ||||||
| 30 | 15:50 | SW 13 | 10.00 | Overcast | SCT017 BKN130 OVC300 | 0 | 0 | 0% | 29.79 | 0.0 | |||||||
| 30 | 14:50 | SW 14 | 10.00 | Mostly Cloudy | BKN016TCU BKN130 BKN300 | 0 | 0 | 0% | 29.8 | 0.0 | |||||||
| 30 | 13:50 | SW 14 | 10.00 | Overcast | BKN016 BKN130 OVC300 | 0 | 0 | 0% | 29.81 | 0.0 | |||||||
| 30 | 12:50 | SW 14 | 10.00 | Overcast | BKN016 BKN130 OVC300 | 86 | 78.8 | 79% | 99 | 29.81 | 0.0 | ||||||
| 30 | 11:50 | SW 12 | 10.00 | Overcast | BKN016TCU BKN130 OVC300 | 87.8 | 78.8 | 75% | 102 | 29.84 | 0.0 | ||||||
| 30 | 10:50 | SW 16 | 10.00 | Showers in Vicinity | BKN016TCU BKN130 BKN300 | 87.8 | 78.8 | 75% | 102 | 29.84 | 0.0 | ||||||
| 30 | 09:53 | SW 15 | 10.00 | Overcast | BKN014TCU BKN130 OVC300 | 84.2 | 78.8 | 84% | 96 | 29.85 | 0.0 | ||||||
| 30 | 08:52 | SW 16 | 10.00 | Mostly Cloudy | BKN015TCU BKN130 BKN300 | 84.2 | 77 | 79% | 94 | 29.85 | 0.0 | ||||||
| Date | Time (+11) | Wind (mph) | Vis. (mi.) | Weather | Sky Cond. | Air | Dwpt | Max. | Min. | Relative Humidity | Wind Chill (°F) | Heat Index (°F) | altimeter (in) | sea level (mb) | 1 hr | 3 hr | 6 hr |
| 6 hour | |||||||||||||||||
| Temperature (ºF) | Pressure | Precipitation (in) | |||||||||||||||